Location: Newark
(11.2914°S, 14.4718°E)
Time: 10:15:32
(UTC+00:00)

Explorer 7 - Pass Details

Date: 29 September 2019
Orbit: 485 x 680 km, 50.3° (Epoch: 13 October)

Event Time Altitude Azimuth Distance (km) Brightness Sun altitude
Exits shadow 02:51:41 13° 19° (NNE) 1,917 9.6 -29.1°
Maximum altitude 02:54:11 18° 54° (NE) 1,621 9.6 -28.5°
Drops below altitude 10° 02:57:23 10° 97° (E) 2,064 10.7 -27.7°
Sets 03:00:20 0° 115° (ESE) 2,949 11.7 -27.0°
